Погода в Малом Имыше

Россия / Красноярский край     55°13′10″N   90°31′30″E
темп.,
°C
ветер,
м/с
пор.,
м/с
влажн.,
%
обл.,
%
осадки,
мм/ч
давл.,
гПа
погр.,
м
20 января, чт
чт2001:00−23зсз0010069 0.0 10319
04:00−24юз0010072 0.0 10329
07:00−25юз0110084 0.0 10339
10:00−25юз1110095 0.0 10349
13:00−16ю11967 0.0 103339
16:00−18ю11986 0.0 10349
19:00−21зюз0010071 0.0 10369
22:00−20ююз0010099 0.0 10379
21 января, пт
пт2101:00−18ю009879 0.0 10389
04:00−22ююв0010043 0.0 10389
07:00−23вюв0010061 0.0 10399
10:00−23в1110050 0.0 10399
13:00−17юв11945 0.0 103747
16:00−18вюв119756 0.0 10369
19:00−22с111007 0.0 10369
22:00−22ссз11100100 0.0 10369
22 января, сб
сб2201:00−21юз0099100 0.0 10369
04:00−23вюв0010072 0.0 10369
07:00−25вюв0110063 0.0 10379
10:00−25вюв1110049 0.0 10389
13:00−19юв119618 0.0 103762
16:00−20вюв11995 0.0 103710
19:00−24юв0010016 0.0 10399
22:00−25ю1110013 0.0 10419
23 января, вс
вс2301:00−26юв1110020 0.0 10419
04:00−27ююв1110055 0.0 10429
07:00−26юв1110099 0.0 104210
10:00−24ююв129997 0.0 104336
13:00−18ююв12945 0.0 104180
16:00−19юв119661 0.0 104112
19:00−24ююв119934 0.0 10429
22:00−25ююз1110011 0.0 10439
24 января, пн
пн2401:00−27ю1110050 0.0 10449
04:00−27ююз1110062 0.0 10439
07:00−26ю1110054 0.0 104410
10:00−25ю119966 0.0 104414
13:00−18ю11945 0.0 104267
16:00−18ююв11965 0.0 104211
19:00−22юв11999 0.0 10439
22:00−24юв11998 0.0 10439